Location: Gro� Glienicke
(52.4675°N, 13.1079°E)
Time: 03:03:00
(UTC+00:00)

CARTOSAT-1 - Pass Details

Date: 06 July 2020
Orbit: 617 x 618 km, 97.8° (Epoch: 04 August)

Event Time Altitude Azimuth Distance (km) Brightness Sun altitude
Exits shadow 20:49:39 - 177° (S) 2,166 5.8 -8.8°
Reaches altitude 10° 20:50:07 10° 178° (S) 1,979 5.6 -8.8°
Maximum altitude 20:54:23 60° 259° (W) 713 4.0 -9.2°
Drops below altitude 10° 20:58:40 10° 340° (NNW) 1,995 7.7 -9.5°
Sets 21:00:54 0° 344° (NNW) 2,906 8.8 -9.7°
